sat.trackr.live / text

‹ back to catalog

STARLINK-34624

NORAD 64805 · 2025-150R

PAYLOAD ACTIVE UNKNOWN

§ Identity

Operator
Country
US
Launch date
2025-07-16
Launch site
AFWTR
Launch vehicle
Mass (kg)
RCS (m²)

Purposes: comms

External: N2YO · Heavens-Above · Gunter

§ Orbital elements

Epoch: 2026-05-24T17:26:25.526112Z

Period
96.11 min
Inclination
70.0008°
Eccentricity
0.0002317
Mean motion
14.98335678 rev/d
Perigee alt
570.4 km
Apogee alt
573.6 km
Semi-major
6,950.2 km
B*
2.4414e-4
RAAN
302.8494°
Arg perigee
271.0183°
Mean anomaly
89.0711°
Rev number
4,790

§ Raw data

STARLINK-346241 64805U 25150R   26144.72668433  .00002822  00000+0  24414-3 0  99932 64805  70.0008 302.8494 0002317 271.0183  89.0711 14.98335678 47905

JSON: /api/v1/satellites/64805 · /tle

For live sub-satellite position, see the globe view (requires WebGL).

§ Visibility from observer

Set your observer location to see the next 7 days of passes ≥ 10°. The values pass through the URL so the page stays shareable.

No JS? Fill the form by hand. The geolocation button needs JavaScript.